Location: Dodgeville, WI 53533, USA
(43.0344°N, 90.0900°W)
Time: 15:00:36
(UTC-06:00)

Envisat - Visible Passes

Search period start: 19 January 2022 00:00
Search period end: 29 January 2022 00:00
Orbit: 764 x 766 km, 98.2° (Epoch: 19 January)

Date Brightness Start Highest point End Pass type
(mag) Time Alt. Az. Time Alt. Az. Time Alt. Az.
19 Jan 4.2 04:23:15 10° NNE 04:28:01 40° E 04:32:45 10° SSE visible
19 Jan 3.9 06:02:38 10° N 06:06:49 26° WNW 06:10:59 10° WSW visible
20 Jan 5.4 03:47:21 10° NE 03:50:51 18° E 03:54:19 10° SE visible
20 Jan 3.0 05:25:14 10° N 05:30:11 55° WNW 05:35:08 10° SSW visible
21 Jan 3.2 04:48:17 10° NNE 04:53:22 69° ESE 04:58:25 10° S visible
21 Jan 4.4 06:28:44 10° NNW 06:31:49 16° WNW 06:34:52 10° W visible
22 Jan 4.6 04:11:50 10° NNE 04:16:21 31° E 04:20:50 10° SSE visible
22 Jan 3.6 05:50:50 10° N 05:55:19 33° WNW 05:59:48 10° SW visible
23 Jan 5.7 03:36:24 10° ENE 03:39:07 14° E 03:41:51 10° ESE visible
23 Jan 2.8 05:13:34 10° N 05:18:38 70° WNW 05:23:40 10° SSW visible
24 Jan 3.6 04:36:46 10° NNE 04:41:46 54° E 04:46:43 10° S visible
24 Jan 4.2 06:16:44 10° NNW 06:20:21 20° WNW 06:23:59 10° WSW visible
24 Jan 6.2 17:34:29 10° WSW 17:36:39 13° W 17:38:51 10° WNW visible
25 Jan 5.0 04:00:31 10° NE 04:04:40 25° E 04:08:49 10° SSE visible
25 Jan 3.3 05:39:04 10° N 05:43:48 41° WNW 05:48:32 10° SW visible
26 Jan 6.0 03:26:01 10° ENE 03:27:23 11° E 03:28:45 10° ESE visible
26 Jan 2.9 05:01:57 10° NNE 05:07:04 87° WNW 05:12:08 10° SSW visible
26 Jan 4.7 06:43:19 10° NW 06:45:17 12° WNW 06:47:15 10° W visible
27 Jan 4.1 04:25:17 10° NNE 04:30:07 42° E 04:34:55 10° S visible
27 Jan 4.0 06:04:49 10° NNW 06:08:53 25° WNW 06:12:57 10° WSW visible
28 Jan 5.4 03:49:18 10° NE 03:52:58 20° E 03:56:38 10° SE visible
28 Jan 3.1 05:27:21 10° N 05:32:17 51° WNW 05:37:09 10° SW visible
